Flag for Netherlands Weather past 2 weeks in Ede, Netherlands

Now
59 °F

Drizzle. Broken clouds.


Feels Like: 57 °F
Forecast: 53 / 64 °F
Wind: 10 mph from Southwest

Location: Deelen

Current Time: Aug 30, 2014 at 8:19:59 AM

Latest Report: Aug 30, 2014 at 7:55 AM


Visibility: 3 mi

Pressure: 29.95 "Hg

Humidity: 100%

Dew point: 59 °F

Location of EdeLocation

Historic Weather in Ede — Graph

°F

Ede temperature yesterday

Maximum temperature yesterday: 70 °F (at 2:55 PM)
Minimum temperature yesterday: 55 °F (at 6:55 AM)
Average temperature yesterday: 62 °F

Past Weeks' High & Low Weather Summary

 TemperatureHumidityPressure
High70 °F (Aug 27, 3:55 PM)100% (Aug 15, 6:25 AM)30.09 "Hg (Aug 15, 6:25 AM)
Low43 °F (Aug 25, 12:55 AM)49% (Aug 23, 5:55 PM)29.62 "Hg (Aug 18, 2:55 AM)
Average56 °F85%29.90 "Hg
* Reported Aug 15 6:25 AM — Aug 30 6:55 AM, Ede, Weather by CustomWeather, © 2014

Note: Actual official high and low records may vary slightly from our data, if they occured in-between our weather recording intervals... More about our weather records

Advertising

Ede weather history for previous 24 hours

 ConditionsComfort  
Time TempWeatherWind HumidityBarometerVisibility
6:55 AM
Aug 30
59 °FRain showers. Mostly cloudy.14 mph94%29.95 "Hg3 mi
6:25 AM61 °FMostly cloudy.12 mph83%29.95 "HgN/A
5:55 AM61 °FMostly cloudy.10 mph83%29.95 "HgN/A
5:25 AM59 °FOvercast.9 mph88%29.95 "HgN/A
4:55 AM61 °FOvercast.10 mph83%29.95 "HgN/A
4:25 AM59 °FOvercast.10 mph88%29.95 "HgN/A
3:55 AM59 °FPartly cloudy.9 mph88%29.95 "HgN/A
3:25 AM59 °FMostly cloudy.8 mph88%29.95 "HgN/A
2:55 AM59 °FPartly cloudy.8 mph88%29.95 "HgN/A
2:25 AM59 °FMostly cloudy.8 mph82%29.98 "HgN/A
1:55 AM59 °FOvercast.7 mph88%29.98 "HgN/A
1:25 AM59 °FOvercast.7 mph82%29.98 "HgN/A
12:55 AM59 °FPassing clouds.6 mph82%29.98 "HgN/A
12:25 AM59 °FOvercast.7 mph88%29.98 "HgN/A
11:55 PM
Aug 29
59 °FPassing clouds.8 mph88%29.98 "HgN/A
11:25 PM59 °FCool.6 mph94%29.98 "HgN/A
10:55 PM61 °FPassing clouds.5 mph88%29.98 "HgN/A
8:55 PM61 °FBroken clouds.3 mph88%29.95 "HgN/A
8:25 PM63 °FPartly sunny.5 mph83%29.95 "HgN/A
7:55 PM64 °FDrizzle. Broken clouds.6 mph78%29.95 "HgN/A
7:25 PM64 °FScattered clouds.9 mph73%29.95 "HgN/A
6:55 PM66 °FMild.9 mph68%29.95 "HgN/A
6:25 PM66 °FBroken clouds.9 mph73%29.95 "HgN/A
5:55 PM66 °FScattered clouds.9 mph73%29.95 "HgN/A
5:25 PM64 °FScattered clouds.6 mph83%29.98 "HgN/A
4:55 PM63 °FDrizzle. Broken clouds.12 mph83%29.98 "HgN/A
4:25 PM68 °FBroken clouds.8 mph64%29.98 "HgN/A
3:55 PM68 °FBroken clouds.8 mph64%29.98 "HgN/A
3:25 PM70 °FScattered clouds.13 mph60%29.98 "HgN/A
2:55 PM70 °FPassing clouds.13 mph60%29.98 "HgN/A
2:25 PM68 °FPartly sunny.10 mph64%29.98 "HgN/A
1:55 PM68 °FPartly sunny.15 mph64%29.98 "HgN/A
1:25 PM66 °FBroken clouds.13 mph68%29.98 "HgN/A
12:55 PM68 °FPartly sunny.14 mph64%29.98 "HgN/A
12:25 PM66 °FBroken clouds.15 mph73%29.98 "HgN/A
11:55 AM64 °FPartly sunny.10 mph78%29.98 "HgN/A
11:25 AM64 °FBroken clouds.10 mph83%29.95 "HgN/A
11:04 AM64 °FPartly sunny.10 mph78%29.95 "HgN/A
10:55 AM63 °FPassing clouds.9 mph83%29.95 "HgN/A
10:25 AM63 °FBroken clouds.9 mph83%29.95 "HgN/A
9:55 AM61 °FFog.8 mph94%29.95 "Hg6 mi
9:25 AM59 °FFog.9 mph94%29.95 "Hg6 mi
8:55 AM59 °FFog.7 mph94%29.95 "Hg6 mi
8:25 AM57 °FFog.6 mph100%29.95 "Hg4 mi
Weather by CustomWeather, © 2014

See weather overviewHow to use our weather pages